sat.trackr.live / text

‹ back to catalog

STARLINK-34859

NORAD 65348 · 2025-189AB

PAYLOAD ACTIVE UNKNOWN

§ Identity

Operator
Country
US
Launch date
2025-08-27
Launch site
AFETR
Launch vehicle
Mass (kg)
RCS (m²)

Purposes: comms

External: N2YO · Heavens-Above · Gunter

§ Orbital elements

Epoch: 2026-09-20T13:14:53.112768Z

Period
93.85 min
Inclination
53.1584°
Eccentricity
0.0001006
Mean motion
15.34380482 rev/d
Perigee alt
462.1 km
Apogee alt
463.4 km
Semi-major
6,840.9 km
B*
1.0432e-3
RAAN
19.3161°
Arg perigee
96.2153°
Mean anomaly
263.8964°
Rev number
6,097

§ Raw data

STARLINK-348591 65348U 25189AB  26263.55200362  .00035013  00000+0  10432-2 0  99962 65348  53.1584  19.3161 0001006  96.2153 263.8964 15.34380482 60976

JSON: /api/v1/satellites/65348 · /tle

For live sub-satellite position, see the globe view (requires WebGL).

§ Visibility from observer

Set your observer location to see the next 7 days of passes ≥ 10°. The values pass through the URL so the page stays shareable.

No JS? Fill the form by hand. The geolocation button needs JavaScript.